Location: Washington
(38.8950°N, 77.0370°W)
Time: 13:21:41
(UTC-05:00)

IDEFIX/ARIANE 42P - Visible Passes

Search period start: 04 December 2016 00:00
Search period end: 14 December 2016 00:00
Orbit: 784 x 804 km, 98.2° (Epoch: 03 December)

Date Brightness Start Highest point End Pass type
(mag) Time Alt. Az. Time Alt. Az. Time Alt. Az.
04 Dec 5.6 05:13:12 10° ENE 05:16:04 15° E 05:18:54 10° SE visible
04 Dec 3.6 18:08:19 10° S 18:13:20 48° W 18:18:21 10° NNW visible
05 Dec 2.9 06:22:34 10° NNE 06:27:46 73° ESE 06:32:56 10° S visible
05 Dec 2.6 17:39:46 10° SSE 17:44:58 89° WSW 17:50:11 10° NNW visible
06 Dec 4.1 05:54:31 10° NNE 05:59:22 38° E 06:04:11 10° SSE visible
06 Dec 2.8 17:11:44 10° SE 17:16:44 49° ENE 17:21:42 10° N visible
06 Dec 5.3 18:53:00 10° SW 18:56:34 19° W 19:00:08 10° NW visible
07 Dec 5.2 05:26:59 10° NE 05:30:51 21° E 05:34:42 10° SE visible
07 Dec 4.3 18:23:21 10° SSW 18:28:02 34° W 18:32:45 10° NNW visible
08 Dec 5.9 05:01:10 10° ENE 05:02:14 11° E 05:03:16 10° E visible
08 Dec 2.6 06:37:11 10° N 06:42:24 82° WNW 06:47:36 10° SSW visible
08 Dec 3.0 17:54:28 10° S 17:59:37 65° W 18:04:47 10° NNW visible
09 Dec 3.4 06:08:58 10° NNE 06:14:04 54° E 06:19:08 10° S visible
09 Dec 2.5 17:26:10 10° SSE 17:31:19 69° ENE 17:36:29 10° N visible
09 Dec 5.7 19:09:04 10° WSW 19:11:22 13° W 19:13:42 10° WNW visible
10 Dec 4.7 05:41:07 10° NE 05:45:37 29° E 05:50:06 10° SSE visible
10 Dec 4.9 18:38:35 10° SSW 18:42:47 25° W 18:47:00 10° NW visible
11 Dec 5.6 05:14:00 10° NE 05:17:03 16° E 05:20:05 10° SE visible
11 Dec 3.7 18:09:20 10° S 18:14:18 46° W 18:19:17 10° NNW visible
12 Dec 2.8 06:23:30 10° NNE 06:28:44 76° ESE 06:33:56 10° S visible
12 Dec 2.6 17:40:45 10° SSE 17:45:56 86° WSW 17:51:09 10° NNW visible
13 Dec 4.0 05:55:27 10° NNE 06:00:20 40° E 06:05:14 10° SSE visible
13 Dec 2.7 17:12:41 10° SSE 17:17:40 51° ENE 17:22:42 10° N visible
13 Dec 5.4 18:54:09 10° SW 18:57:33 18° W 19:00:59 10° NW visible
